Weather History for Parkersburg, WV

Change the Weather History Date:

Monday, January 20, 2014

  Actual Average Record
Temperature  
Mean Temperature 38 °F 31 °F  
Max Temperature 43 °F 40 °F 71 °F (1906)
Min Temperature 32 °F 23 °F -18 °F (1985)
Degree Days  
Heating Degree Days 27 34  
Month to date heating degree days 681 673  
Since 1 July heating degree days 2631 2583  
Cooling Degree Days 0 0  
Month to date cooling degree days 0 0  
Year to date cooling degree days 0 0  
Moisture  
Dew Point 24 °F    
Average Humidity 62    
Maximum Humidity 75    
Minimum Humidity 49    
Precipitation  
Precipitation 0.00 in 0.10 in 0.40 in (2011)
Month to date precipitation 1.86 1.89  
Year to date precipitation 1.86 1.89  
Sea Level Pressure  
Sea Level Pressure 29.85 in    
Wind  
Wind Speed 10 mph (West)    
Max Wind Speed 17 mph    
Max Gust Speed 26 mph    
Visibility 10 miles    
Events      
T = Trace of Precipitation, MM = Missing Value Source: NWS Daily Summary

Daily Weather History Graph

Daily Weather History Graph

Search for Another Location

Airport:

Trip Planner

Search our weather history database for the weather conditions in past years. The results will help you decide how hot, cold, wet, or windy it might be!

Date:

Astronomy

Jan. 20, 2014 Rise Set
Actual Time 7:41 AM EST 5:32 PM EST
Civil Twilight 7:12 AM EST 6:01 PM EST
Nautical Twilight 6:39 AM EST 6:34 PM EST
Astronomical Twilight 6:07 AM EST 7:06 PM EST
Moon 10:04 PM EST (1/20) 9:42 AM EST (1/20)
Length of Visible Light 10h 48m
Length of Day
9h 50m
Waning Gibbous, 83% of the Moon is Illuminated
Jan 20
Waning Gibbous
Jan 24
Last Quarter
Jan 30
New
Feb 6
First Quarter
Feb 14
Full

Hourly Weather History & Observations

Time (EST) Temp. Windchill Dew Point Humidity Pressure Visibility Wind Dir Wind Speed Gust Speed Precip Events Conditions
12:53 AM 35.1 °F 26.4 °F 21.9 °F 59% 29.79 in 10.0 mi SSW 12.7 mph - N/A   Clear
1:53 AM 36.0 °F 28.0 °F 21.9 °F 57% 29.76 in 10.0 mi SW 11.5 mph 20.7 mph N/A   Clear
2:53 AM 37.0 °F 28.5 °F 21.9 °F 54% 29.76 in 10.0 mi SW 13.8 mph 23.0 mph N/A   Clear
3:53 AM 37.0 °F 29.8 °F 21.9 °F 54% 29.75 in 10.0 mi SW 10.4 mph 21.9 mph N/A   Clear
4:53 AM 37.0 °F 28.5 °F 21.9 °F 54% 29.74 in 10.0 mi SSW 13.8 mph 20.7 mph N/A   Clear
5:53 AM 37.0 °F 29.3 °F 21.9 °F 54% 29.75 in 10.0 mi SSW 11.5 mph 20.7 mph N/A   Clear
6:53 AM 37.0 °F 29.8 °F 21.9 °F 54% 29.76 in 10.0 mi SW 10.4 mph - N/A   Clear
7:53 AM 37.0 °F 29.3 °F 21.9 °F 54% 29.78 in 10.0 mi SW 11.5 mph 18.4 mph N/A   Clear
8:53 AM 39.0 °F 31.4 °F 23.0 °F 53% 29.80 in 10.0 mi SW 12.7 mph 20.7 mph N/A   Scattered Clouds
9:53 AM 39.0 °F 29.9 °F 23.0 °F 53% 29.83 in 10.0 mi WSW 17.3 mph 21.9 mph N/A   Overcast
10:53 AM 39.9 °F 35.1 °F 25.0 °F 55% 29.86 in 10.0 mi West 6.9 mph - N/A   Overcast
11:53 AM 39.9 °F 33.4 °F 26.1 °F 58% 29.86 in 10.0 mi West 10.4 mph 19.6 mph N/A   Overcast
12:53 PM 41.0 °F 33.5 °F 26.1 °F 55% 29.85 in 10.0 mi West 13.8 mph 20.7 mph N/A   Overcast
1:53 PM 41.0 °F 35.2 °F 26.1 °F 55% 29.84 in 10.0 mi West 9.2 mph 20.7 mph N/A   Mostly Cloudy
2:53 PM 41.0 °F 33.5 °F 26.1 °F 55% 29.86 in 10.0 mi West 13.8 mph - N/A   Overcast
3:53 PM 42.1 °F 35.7 °F 25.0 °F 51% 29.88 in 10.0 mi West 11.5 mph 19.6 mph N/A   Partly Cloudy
4:53 PM 39.9 °F 32.9 °F 26.1 °F 58% 29.90 in 10.0 mi NW 11.5 mph - N/A   Overcast
5:53 PM 37.9 °F 31.5 °F 26.1 °F 62% 29.93 in 10.0 mi NW 9.2 mph - N/A   Overcast
6:53 PM 36.0 °F 31.1 °F 26.1 °F 67% 29.94 in 10.0 mi NW 5.8 mph - N/A   Overcast
7:53 PM 35.1 °F 31.0 °F 25.0 °F 67% 29.95 in 10.0 mi NW 4.6 mph - N/A   Partly Cloudy
8:53 PM 35.1 °F 32.2 °F 25.0 °F 67% 29.94 in 10.0 mi NNW 3.5 mph - N/A   Mostly Cloudy
9:53 PM 34.0 °F 29.8 °F 26.1 °F 73% 29.93 in 9.0 mi North 4.6 mph - N/A   Mostly Cloudy
10:53 PM 33.1 °F 26.9 °F 26.1 °F 75% 29.93 in 10.0 mi North 6.9 mph - N/A   Partly Cloudy
11:31 PM 32.0 °F 28.7 °F 25.0 °F 75% 29.91 in 10.0 mi North 3.5 mph - N/A   Overcast
11:53 PM 32.0 °F 25.6 °F 25.0 °F 75% 29.93 in 10.0 mi NNE 6.9 mph - N/A   Overcast